Total_Precipitation_Accumulation
0.63 0.37 0.66 0.73 0.62 0.59 0.64 0.73 0.73 0.77 0.84 0.90 0.84 0.76 0.71 0.56 0.49 0.43 0.38 0.32 0.38 0.48 0.47 0.42 0.37 0.32 0.25 0.22 0.26 0.34 0.41 0.49 0.54 0.57 0.66 0.70 0.68 0.71 0.87 1.08 1.24 1.42 0.95
0.56 0.40 0.69 0.78 0.65 0.60 0.61 0.65 0.71 0.71 0.75 0.78 0.79 0.78 0.64 0.49 0.47 0.42 0.38 0.34 0.35 0.39 0.41 0.44 0.44 0.38 0.31 0.32 0.35 0.40 0.43 0.47 0.58 0.62 0.79 0.85 0.77 0.76 0.73 0.85 1.07 1.21 0.93
0.54 0.45 0.58 0.73 0.64 0.59 0.59 0.62 0.71 0.74 0.75 0.77 0.81 0.86 0.64 0.51 0.49 0.44 0.44 0.43 0.39 0.34 0.37 0.46 0.51 0.47 0.39 0.40 0.44 0.47 0.49 0.51 0.60 0.70 1.08 1.62 1.14 0.81 0.78 0.87 0.93 0.90 0.94
0.63 0.58 0.67 0.83 0.74 0.64 0.62 0.72 0.79 0.85 0.87 0.93 0.91 0.80 0.61 0.56 0.55 0.54 0.56 0.57 0.49 0.37 0.37 0.39 0.45 0.45 0.41 0.44 0.47 0.45 0.51 0.56 0.66 0.79 1.16 1.62 1.52 1.09 0.96 0.99 0.95 0.83 0.93
0.64 0.69 0.87 0.98 0.84 0.75 0.72 0.78 0.89 0.97 0.95 0.98 0.92 0.69 0.59 0.57 0.59 0.60 0.63 0.60 0.53 0.47 0.42 0.40 0.41 0.39 0.39 0.40 0.44 0.47 0.53 0.63 0.81 0.89 1.20 1.55 1.79 1.23 0.95 1.06 1.09 0.94 0.98
0.59 0.60 0.76 0.91 0.83 0.78 0.81 0.87 0.87 0.82 0.83 0.91 0.84 0.67 0.56 0.61 0.61 0.62 0.59 0.53 0.53 0.53 0.50 0.47 0.43 0.41 0.42 0.38 0.42 0.49 0.57 0.68 0.80 1.01 1.25 1.59 1.72 1.17 0.90 1.03 1.13 1.12 1.10
0.65 0.58 0.65 0.80 0.76 0.74 0.80 0.88 0.89 0.80 0.83 0.86 0.83 0.76 0.59 0.58 0.63 0.66 0.58 0.51 0.50 0.51 0.49 0.49 0.46 0.42 0.40 0.40 0.41 0.45 0.56 0.55 0.69 0.98 1.18 1.56 1.36 0.93 0.78 0.92 1.18 1.31 1.21
0.72 0.66 0.62 0.72 0.72 0.69 0.73 0.80 0.83 0.81 0.89 0.87 0.77 0.71 0.66 0.58 0.59 0.60 0.56 0.56 0.53 0.53 0.53 0.51 0.45 0.41 0.41 0.42 0.41 0.43 0.50 0.44 0.46 0.71 0.92 1.28 1.17 1.00 0.76 0.79 1.02 1.22 1.26
0.78 0.76 0.71 0.70 0.69 0.72 0.81 0.80 0.82 0.88 0.99 0.96 0.78 0.71 0.71 0.60 0.53 0.52 0.53 0.55 0.55 0.57 0.60 0.55 0.45 0.39 0.42 0.45 0.43 0.43 0.45 0.46 0.48 0.61 0.72 1.00 1.02 1.01 0.80 0.78 0.91 1.04 1.21
0.74 0.71 0.67 0.65 0.68 0.72 0.81 0.84 0.85 0.85 0.94 0.93 0.82 0.81 0.80 0.65 0.54 0.54 0.53 0.57 0.60 0.63 0.68 0.64 0.55 0.48 0.47 0.49 0.47 0.44 0.44 0.40 0.44 0.51 0.69 0.74 0.91 0.93 0.75 0.72 0.78 0.85 0.93
0.67 0.68 0.65 0.62 0.65 0.71 0.79 0.80 0.90 0.92 0.96 0.89 0.82 0.86 0.77 0.57 0.53 0.56 0.50 0.62 0.73 0.86 0.87 0.78 0.69 0.61 0.55 0.48 0.45 0.45 0.36 0.31 0.47 0.53 0.65 0.74 0.90 0.89 0.74 0.69 0.73 0.70 0.70
0.69 0.69 0.65 0.68 0.66 0.65 0.70 0.93 1.10 0.98 0.89 0.78 0.81 0.78 0.76 0.73 0.70 0.52 0.53 0.68 0.75 0.84 0.87 0.81 0.77 0.63 0.46 0.36 0.41 0.41 0.26 0.29 0.40 0.44 0.50 0.72 0.90 0.94 0.83 0.73 0.68 0.63 0.60
0.67 0.68 0.63 0.61 0.55 0.55 0.70 0.87 1.06 1.11 1.07 1.04 0.90 0.89 0.85 0.76 0.65 0.51 0.49 0.54 0.59 0.68 0.67 0.73 0.71 0.50 0.40 0.39 0.43 0.35 0.29 0.32 0.38 0.43 0.55 0.80 0.96 0.95 0.90 0.79 0.71 0.64 0.59
0.58 0.61 0.57 0.54 0.51 0.49 0.50 0.61 0.76 0.83 0.82 0.84 0.85 0.79 0.80 0.81 0.74 0.64 0.58 0.62 0.65 0.63 0.69 0.75 0.73 0.60 0.51 0.43 0.40 0.39 0.38 0.37 0.43 0.54 0.63 0.78 1.00 1.03 1.01 0.92 0.83 0.73 0.64
0.52 0.54 0.56 0.58 0.56 0.61 0.60 0.57 0.56 0.62 0.67 0.72 0.80 0.72 0.67 0.70 0.73 0.75 0.69 0.73 0.70 0.68 0.71 0.72 0.61 0.60 0.59 0.50 0.45 0.46 0.50 0.44 0.53 0.56 0.63 0.73 1.03 1.32 1.30 1.18 1.05 0.89 0.78
0.49 0.59 0.62 0.59 0.62 0.60 0.56 0.59 0.62 0.62 0.66 0.69 0.73 0.66 0.60 0.60 0.62 0.74 0.73 0.78 0.69 0.71 0.79 0.72 0.65 0.67 0.67 0.58 0.49 0.50 0.51 0.47 0.52 0.58 0.66 0.79 0.92 1.27 1.54 1.49 1.38 1.21 0.97
0.44 0.57 0.69 0.66 0.69 0.65 0.60 0.63 0.66 0.66 0.63 0.65 0.69 0.62 0.58 0.61 0.62 0.74 0.78 0.77 0.75 0.78 0.81 0.84 0.83 0.78 0.70 0.62 0.54 0.52 0.51 0.51 0.54 0.58 0.61 0.77 0.80 0.84 1.18 1.53 1.63 1.55 1.27
0.40 0.51 0.63 0.65 0.70 0.73 0.72 0.72 0.69 0.65 0.66 0.72 0.75 0.70 0.66 0.64 0.67 0.87 0.92 0.81 0.86 0.97 1.00 1.01 0.97 0.89 0.79 0.75 0.74 0.66 0.58 0.55 0.57 0.60 0.62 0.67 0.69 0.64 0.69 0.83 1.04 1.23 1.41
0.41 0.47 0.52 0.58 0.78 0.81 0.77 0.83 0.83 0.80 0.86 0.89 0.92 0.89 0.84 0.81 0.89 1.06 1.13 1.04 1.02 1.17 1.14 1.03 1.03 1.03 0.94 0.92 0.91 0.88 0.73 0.64 0.64 0.62 0.68 0.78 0.77 0.75 0.76 0.60 0.64 0.76 1.03
0.34 0.40 0.46 0.55 0.67 0.79 0.94 1.02 1.10 1.11 1.11 1.23 1.30 1.29 1.12 1.07 1.13 1.28 1.38 1.34 1.30 1.40 1.39 1.27 1.35 1.34 1.24 1.26 1.15 1.04 0.92 0.84 0.81 0.79 0.78 0.85 0.90 0.81 0.83 0.71 0.67 0.56 0.63
0.25 0.31 0.37 0.54 0.70 0.86 0.98 1.13 1.38 1.54 1.64 1.63 1.63 1.70 1.62 1.44 1.52 1.63 1.60 1.81 1.89 1.86 1.85 1.80 1.91 1.93 1.66 1.48 1.72 1.68 1.27 1.00 0.89 0.90 0.94 0.96 0.97 0.95 0.94 0.89 0.82 0.65 0.53
0.16 0.22 0.30 0.44 0.67 0.92 1.15 1.33 1.52 1.84 2.00 2.00 2.06 2.01 1.96 1.85 1.87 1.79 1.87 2.08 2.13 2.23 2.32 2.16 2.27 2.33 2.02 1.73 2.08 2.47 1.97 1.56 1.01 0.81 0.90 0.98 1.05 1.05 1.00 0.89 0.86 0.78 0.64
0.09 0.14 0.21 0.34 0.57 0.88 1.19 1.45 1.64 1.88 2.14 2.24 2.15 2.10 2.13 2.21 2.26 2.15 2.11 2.23 2.24 2.32 2.51 2.54 2.48 2.55 2.46 2.15 2.11 2.50 2.35 2.02 1.59 1.02 0.90 0.98 1.09 1.13 1.13 1.10 0.99 0.91 0.80
0.10 0.13 0.17 0.32 0.48 0.72 0.99 1.32 1.57 1.84 2.15 2.22 2.20 2.17 2.21 2.33 2.42 2.38 2.33 2.39 2.39 2.35 2.47 2.55 2.53 2.72 2.87 2.58 2.33 2.10 2.01 2.01 1.98 1.53 1.11 1.04 1.16 1.21 1.22 1.14 1.10 1.10 1.07
0.15 0.18 0.25 0.38 0.54 0.74 0.98 1.30 1.63 1.82 1.99 2.19 2.20 2.11 2.05 2.12 2.14 2.12 2.24 2.39 2.41 2.38 2.39 2.57 2.68 2.85 2.83 2.73 2.57 2.43 2.24 2.05 1.71 1.76 1.62 1.34 1.29 1.19 1.24 1.31 1.28 1.29 1.27
0.25 0.30 0.38 0.51 0.72 0.87 0.97 1.12 1.29 1.50 1.78 1.92 2.02 2.06 2.07 2.07 1.95 1.87 1.98 2.08 2.18 2.23 2.21 2.26 2.42 2.55 2.72 2.85 2.77 2.58 2.46 2.32 2.12 1.99 1.71 1.53 1.57 1.41 1.26 1.25 1.28 1.32 1.41